[[{"header":{"parameterUnit":"m.s-1","parameterCategory":1,"la1":30.2991,"la2":30.254,"lo1":-89.0895,"lo2":-89.0444,"dy":0.0017,"dx":0.0017,"nx":28,"ny":28,"refTime":"2024-06-19T21:00:00:Z","depth":0,"parameterNumber":2,"parameterNumberName":"U-component_of_WINDS"},"data":[0,0,0,0,0,0,0,0,0,0,0,0,0,0,0,0,0,0,0,0,0,0,0,0,0,0,0,0,0,0,0,0,0,0,0,0,0,0,0,0,0,0,0,0,0,0,0,0,0,0,0,0,0,0,0,0,0,0,-4.0464,-4.0464,0,-4.0512,-4.0512,-4.0513,-4.0399,-4.0395,-4.0392,-4.0388,-4.0435,-4.0439,-4.0444,0,0,0,0,0,0,0,0,0,0,0,0,0,-4.0269,-4.0274,-4.0464,-4.0464,-4.0465,-4.0512,-4.0512,-4.0513,-4.0399,-4.0395,-4.0391,-4.0387,-4.0433,-4.0439,-4.0444,0,0,0,0,0,0,0,0,0,0,0,0,0,-4.0339,-4.0275,-4.0463,-4.0414,-4.041,-4.0512,-4.0512,-4.0513,-4.04,-4.0395,-4.039,-4.0384,-4.0431,-4.0438,-4.0445,-4.0596,0,0,-4.0466,-4.0469,0,0,0,0,0,0,0,0,-4.0336,-4.0347,-4.042,-4.0417,-4.0413,-4.0444,-4.0461,-4.0541,-4.0402,-4.0404,-4.0388,-4.0382,-4.0442,-4.0448,-4.0469,-4.0599,-4.0601,-4.0467,-4.0471,-4.0474,-4.0476,0,0,0,0,0,0,0,-4.0331,-4.0344,-4.0482,-4.0422,-4.0417,-4.0388,-4.0392,-4.0476,-4.0453,-4.0403,-4.0395,-4.0403,-4.0439,-4.0462,-4.0469,-4.0601,-4.0467,-4.0473,-4.0477,-4.048,-4.0856,-4.0862,0,0,0,0,0,0,-4.0333,-4.0341,-4.0481,-4.0484,-4.036,-4.0396,-4.04,-4.0439,-4.0451,-4.0448,-4.0407,-4.0397,-4.0453,-4.0461,-4.047,-4.0646,-4.0474,-4.048,-4.0484,-4.085,-4.0857,-4.0864,0,0,0,0,0,0,-4.0329,-4.0346,-4.0479,-4.041,-4.0425,-4.0405,-4.045,-4.0443,-4.0466,-4.0454,-4.0449,-4.0435,-4.0449,-4.046,-4.0566,-4.0647,-4.0483,-4.049,-4.0843,-4.0852,-4.086,-4.1002,0,0,0,0,0,0,-4.0324,-4.0346,-4.0404,-4.0412,-4.0429,-4.0575,-4.0455,-4.0448,-4.0479,-4.0466,-4.048,-4.0477,-4.0446,-4.0556,-4.0573,-4.0653,-4.0495,-4.0836,-4.0847,-4.0858,-4.099,-4.1014,-4.1035,0,0,0,0,0,-4.0317,-4.0441,-4.0407,-4.0425,-4.0501,-4.058,-4.0589,-4.0552,-4.0486,-4.0543,-4.0536,-4.0476,-4.0636,-4.0568,-4.0585,-4.0669,-4.0831,-4.0844,-4.0857,-4.098,-4.101,-4.1035,0,0,0,0,0,0,-4.0442,-4.0442,-4.0404,-4.0535,-4.0558,-4.0561,-4.0632,-4.0585,-4.0628,-4.0614,-4.0565,-4.0569,-4.0683,-4.0687,-4.0611,-4.0816,-4.0722,-4.0739,-4.0809,-4.0837,-4.086,-4.0855,-4.0501,0,0,0,0,0,-4.0485,-4.055,-4.0546,-4.0661,-4.0675,-4.0652,-4.0685,-4.0655,-4.0677,-4.0686,-4.0686,-4.0709,-4.0764,-4.0801,-4.0851,-4.099,-4.0991,-4.1057,-4.108,-4.1098,-4.1113,-4.1186,-4.1215,-4.0907,-4.0907,-4.0906,0,0,-4.0573,-4.0581,-4.0625,-4.0687,-4.0701,-4.0768,-4.0661,-4.0737,-4.0786,-4.0697,-4.0796,-4.0797,-4.082,-4.0942,-4.0996,-4.0949,-4.1199,-4.1115,-4.113,-4.1135,-4.1202,-4.1232,-4.1257,-4.0916,-4.0914,-4.0913,0,0,-4.0769,-4.0783,-4.0879,-4.0897,-4.0921,-4.0905,-4.0928,-4.0938,-4.0936,-4.1035,-4.0969,-4.1026,-4.1123,-4.1141,-4.1163,-4.1366,-4.1312,-4.1384,-4.1502,-4.1573,-4.1597,-4.1618,-4.1689,-4.1715,-4.1399,-4.1399,-4.14,0,-4.0876,-4.0975,-4.0935,-4.1015,-4.1044,-4.0968,-4.1064,-4.1083,-4.1122,-4.1143,-4.109,-4.1208,-4.1218,-4.1343,-4.1393,-4.1414,-4.1438,-4.1381,-4.1597,-4.1618,-4.1637,-4.1704,-4.1731,-4.1408,-4.1407,-4.1406,-4.1405,0,-4.1104,-4.1175,-4.125,-4.129,-4.1327,-4.1416,-4.1388,-4.143,-4.1396,-4.1386,-4.1487,-4.1496,-4.1546,-4.1574,-4.1542,-4.1695,-4.1665,-4.1606,-4.1509,-4.1676,-4.1738,-4.1763,-4.142,-4.1417,-4.1414,-4.1412,0,0,-4.1378,-4.1396,-4.1424,-4.1441,-4.1462,-4.1515,-4.16,-4.165,-4.1686,-4.1716,-4.1784,-4.1868,-4.1813,-4.1838,-4.1807,-4.1871,-4.2029,-4.1803,-4.1803,-4.1843,-4.2196,-4.2239,-4.227,-4.1994,-4.1999,-4.2003,-4.2194,0,-4.157,-4.1716,-4.1682,-4.1826,-4.1889,-4.1818,-4.1892,-4.1912,-4.1905,-4.1956,-4.1947,-4.2007,-4.1931,-4.1945,-4.2005,-4.1997,-4.2099,-4.1983,-4.2056,-4.2059,-4.205,-4.2302,-4.2348,-4.2527,-4.2218,-4.2222,-4.2225,0,-4.1813,-4.1853,-4.2003,-4.2013,-4.2039,-4.2105,-4.2148,-4.2199,-4.2221,-4.221,-4.2239,-4.2196,-4.2278,-4.2184,-4.2296,-4.2218,-4.2246,-4.2247,-4.2253,-4.2256,-4.215,-4.2311,-4.2584,-4.261,-4.2263,-4.226,-4.2257,0,-4.1995,-4.2086,-4.2187,-4.2205,-4.222,-4.2268,-4.2277,-4.2293,-4.2325,-4.2362,-4.2382,-4.2429,-4.2454,-4.249,-4.246,-4.2394,-4.2577,-4.248,-4.2569,-4.257,-4.2609,-4.2606,-4.2889,-4.2631,-4.263,-4.263,-4.2629,0,-4.2211,-4.2306,-4.2269,-4.2332,-4.2435,-4.2395,-4.2498,-4.2498,-4.2513,-4.2573,-4.2515,-4.2572,-4.253,-4.2584,-4.2562,-4.2657,-4.2669,-4.2662,-4.2655,-4.2666,-4.2667,-4.2682,-4.2668,-4.2637,-4.2635,-4.2634,-4.2633,0,-4.2431,-4.2411,-4.2517,-4.2523,-4.2527,-4.2602,-4.2607,-4.2664,-4.2653,-4.2729,-4.2745,-4.2727,-4.2787,-4.2761,-4.2825,-4.2809,-4.2931,-4.2908,-4.2924,-4.2917,-4.3008,-4.2999,-4.3308,-4.3346,-4.3066,-4.3068,-4.3071,0,-4.257,-4.2641,-4.2655,-4.2691,-4.2704,-4.2764,-4.2796,-4.276,-4.2796,-4.2826,-4.2879,-4.2935,-4.2976,-4.3076,-4.3067,-4.3115,-4.3092,-4.3197,-4.3098,-4.3108,-4.3091,-4.3086,-4.3092,-4.3216,-4.3219,-4.3222,-4.3224,0,-4.2817,-4.2803,-4.2853,-4.29,-4.294,-4.2975,-4.3004,-4.3037,-4.3002,-4.3046,-4.3107,-4.314,-4.3205,-4.326,-4.3302,-4.3309,-4.3261,-4.3255,-4.3278,-4.329,-4.3295,-4.3292,-4.2976,-4.3248,-4.3245,-4.3244,-4.3242,-4.3241,-4.2998,-4.3058,-4.3077,-4.3134,-4.3153,-4.3182,-4.3235,-4.3231,-4.3282,-4.3332,-4.3308,-4.3378,-4.3397,-4.345,-4.3464,-4.3518,-4.3476,-4.351,-4.3518,-4.3526,-4.3538,-4.3289,-4.3526,-4.3525,-4.3524,-4.3524,-4.3523,0,-4.3241,-4.325,-4.3303,-4.3346,-4.3391,-4.3343,-4.3373,-4.3413,-4.3477,-4.3499,-4.3542,-4.3612,-4.3665,-4.3662,-4.3711,-4.3754,-4.3733,-4.3768,-4.3764,-4.3766,-4.3573,-4.3547,-4.3785,-4.3785,-4.3784,-4.3784,-4.3784,-4.3784,-4.3372,-4.3469,-4.3458,-4.3564,-4.3572,-4.3641,-4.3662,-4.3688,-4.3706,-4.3787,-4.3831,-4.3829,-4.3841,-4.389,-4.3937,-4.3934,-4.3954,-4.3997,-4.3986,-4.3805,-4.3779,-4.3755,-4.373,-4.4002,-4.4003,-4.4174,-4.4176,-4.4177]},{"header":{"parameterUnit":"m.s-1","parameterCategory":1,"la1":30.2991,"la2":30.254,"lo1":-89.0895,"lo2":-89.0444,"dy":0.0017,"dx":0.0017,"nx":28,"ny":28,"refTime":"2024-06-19T21:00:00:Z","depth":0,"parameterNumber":3,"parameterNumberName":"V-component_of_WINDS"},"data":[0,0,0,0,0,0,0,0,0,0,0,0,0,0,0,0,0,0,0,0,0,0,0,0,0,0,0,0,0,0,0,0,0,0,0,0,0,0,0,0,0,0,0,0,0,0,0,0,0,0,0,0,0,0,0,0,0,0,-0.1389,-0.139,0,-0.1473,-0.1474,-0.1475,-0.1545,-0.1545,-0.1546,-0.1547,-0.1637,-0.1639,-0.1641,0,0,0,0,0,0,0,0,0,0,0,0,0,-0.1289,-0.1291,-0.1389,-0.139,-0.1391,-0.1473,-0.1474,-0.1476,-0.1544,-0.1545,-0.1546,-0.1547,-0.1637,-0.1639,-0.1641,0,0,0,0,0,0,0,0,0,0,0,0,0,-0.1349,-0.1291,-0.1389,-0.1435,-0.144,-0.1473,-0.1475,-0.1476,-0.1544,-0.1545,-0.1546,-0.1547,-0.1636,-0.1638,-0.1641,-0.1636,0,0,-0.1649,-0.165,0,0,0,0,0,0,0,0,-0.1346,-0.1353,-0.1427,-0.1432,-0.1438,-0.1499,-0.1473,-0.153,-0.1544,-0.1505,-0.1547,-0.1548,-0.1591,-0.1597,-0.1611,-0.164,-0.1644,-0.1649,-0.1651,-0.1652,-0.1653,0,0,0,0,0,0,0,-0.1341,-0.1349,-0.1422,-0.1428,-0.1435,-0.1452,-0.1462,-0.1484,-0.1541,-0.1508,-0.1513,-0.1522,-0.1594,-0.1608,-0.1613,-0.1645,-0.1649,-0.1651,-0.1653,-0.1654,-0.1674,-0.1673,0,0,0,0,0,0,-0.133,-0.1346,-0.142,-0.1425,-0.1393,-0.1453,-0.1464,-0.1479,-0.1541,-0.1551,-0.1521,-0.1525,-0.1603,-0.161,-0.1617,-0.1614,-0.1652,-0.1654,-0.1656,-0.1675,-0.1674,-0.1672,0,0,0,0,0,0,-0.1327,-0.1336,-0.1416,-0.1387,-0.1398,-0.1454,-0.147,-0.148,-0.1494,-0.1551,-0.1561,-0.1525,-0.1604,-0.1613,-0.163,-0.1618,-0.1656,-0.1658,-0.1676,-0.1674,-0.1673,-0.1609,0,0,0,0,0,0,-0.1324,-0.1334,-0.1332,-0.1386,-0.14,-0.1427,-0.1469,-0.1481,-0.1498,-0.1504,-0.1557,-0.1567,-0.1606,-0.1626,-0.1633,-0.1623,-0.166,-0.1677,-0.1675,-0.1673,-0.1613,-0.1606,-0.16,0,0,0,0,0,-0.132,-0.1312,-0.1332,-0.1341,-0.1398,-0.1426,-0.1434,-0.1478,-0.1497,-0.1496,-0.1532,-0.1565,-0.1618,-0.1627,-0.1635,-0.1626,-0.1678,-0.1676,-0.1674,-0.1616,-0.1607,-0.16,0,0,0,0,0,0,-0.1258,-0.132,-0.1343,-0.1352,-0.1383,-0.1438,-0.1438,-0.1468,-0.1495,-0.15,-0.1554,-0.1565,-0.1576,-0.1603,-0.1611,-0.1624,-0.1653,-0.1652,-0.1606,-0.1598,-0.1592,-0.1585,-0.1662,0,0,0,0,0,-0.1245,-0.1261,-0.1316,-0.1318,-0.1333,-0.1382,-0.1396,-0.1427,-0.1462,-0.1476,-0.1513,-0.1547,-0.1571,-0.1586,-0.1612,-0.1617,-0.1629,-0.1614,-0.1608,-0.1602,-0.1601,-0.1605,-0.1599,-0.1665,-0.1665,-0.1665,0,0,-0.1219,-0.1255,-0.1263,-0.1307,-0.1335,-0.1351,-0.1393,-0.1409,-0.1422,-0.1479,-0.1497,-0.1525,-0.1566,-0.1577,-0.1583,-0.1599,-0.1585,-0.1599,-0.1594,-0.1596,-0.1602,-0.1595,-0.159,-0.1663,-0.1663,-0.1664,0,0,-0.118,-0.1209,-0.1214,-0.124,-0.1281,-0.1313,-0.1314,-0.1364,-0.1385,-0.1403,-0.1445,-0.1462,-0.1503,-0.153,-0.1549,-0.1518,-0.155,-0.1525,-0.1491,-0.1494,-0.1489,-0.1485,-0.1473,-0.1468,-0.1523,-0.1523,-0.1523,0,-0.1143,-0.1168,-0.1213,-0.1226,-0.1244,-0.1293,-0.1299,-0.1323,-0.137,-0.1382,-0.1399,-0.145,-0.1481,-0.1498,-0.149,-0.1504,-0.1507,-0.1519,-0.1486,-0.1482,-0.1479,-0.1468,-0.1464,-0.152,-0.152,-0.152,-0.1521,0,-0.112,-0.1137,-0.1137,-0.1179,-0.1197,-0.1206,-0.1252,-0.1265,-0.1293,-0.1324,-0.1342,-0.1381,-0.1415,-0.1421,-0.145,-0.1442,-0.145,-0.1476,-0.1506,-0.1468,-0.1459,-0.1456,-0.1515,-0.1516,-0.1517,-0.1518,0,0,-0.1046,-0.1111,-0.111,-0.1129,-0.1177,-0.1191,-0.1202,-0.1234,-0.1243,-0.1274,-0.1285,-0.1317,-0.134,-0.1362,-0.1394,-0.1396,-0.1368,-0.1422,-0.1424,-0.141,-0.1361,-0.1342,-0.1336,-0.1389,-0.1389,-0.1388,-0.1358,0,-0.1015,-0.1036,-0.1075,-0.1085,-0.1101,-0.1147,-0.1157,-0.1187,-0.1216,-0.1235,-0.1267,-0.1289,-0.1318,-0.1331,-0.1336,-0.1371,-0.1359,-0.1373,-0.1401,-0.1401,-0.1389,-0.1332,-0.1312,-0.1281,-0.1355,-0.1354,-0.1354,0,-0.0981,-0.1007,-0.1017,-0.1062,-0.107,-0.1078,-0.1109,-0.1126,-0.1161,-0.1182,-0.1204,-0.1239,-0.1253,-0.128,-0.1301,-0.131,-0.1323,-0.1342,-0.1342,-0.1346,-0.1375,-0.1335,-0.1273,-0.1268,-0.1349,-0.1349,-0.1349,0,-0.0925,-0.0963,-0.0973,-0.0988,-0.1041,-0.1045,-0.1068,-0.1104,-0.112,-0.1147,-0.1158,-0.1187,-0.1203,-0.1225,-0.1266,-0.1282,-0.1282,-0.1313,-0.13,-0.1299,-0.1299,-0.1298,-0.1238,-0.1307,-0.1307,-0.1307,-0.1307,0,-0.0886,-0.0891,-0.0948,-0.0955,-0.0961,-0.1006,-0.1011,-0.1038,-0.107,-0.1083,-0.1125,-0.1136,-0.119,-0.1208,-0.124,-0.1252,-0.126,-0.1277,-0.1286,-0.1273,-0.1271,-0.1283,-0.1287,-0.1306,-0.1306,-0.1306,-0.1307,0,-0.0826,-0.0864,-0.0879,-0.0926,-0.0939,-0.0941,-0.0982,-0.0991,-0.1021,-0.1037,-0.1043,-0.1091,-0.1114,-0.1157,-0.1193,-0.1215,-0.122,-0.1235,-0.1207,-0.1213,-0.1197,-0.1198,-0.1143,-0.1138,-0.1209,-0.1209,-0.1208,0,-0.0798,-0.0802,-0.0849,-0.086,-0.088,-0.0898,-0.0913,-0.0957,-0.0972,-0.1011,-0.1015,-0.104,-0.1064,-0.1098,-0.1137,-0.1164,-0.118,-0.1159,-0.1185,-0.1172,-0.118,-0.1179,-0.1179,-0.1153,-0.1152,-0.1151,-0.1151,0,-0.0745,-0.0764,-0.0784,-0.081,-0.0826,-0.085,-0.0875,-0.0882,-0.0932,-0.0946,-0.0969,-0.0987,-0.1022,-0.1047,-0.1079,-0.1104,-0.1135,-0.1142,-0.114,-0.1128,-0.1112,-0.112,-0.1191,-0.1143,-0.1144,-0.1145,-0.1145,-0.1145,-0.0701,-0.0706,-0.0739,-0.076,-0.0783,-0.0805,-0.0815,-0.0845,-0.0865,-0.0895,-0.0921,-0.0941,-0.0976,-0.1022,-0.1044,-0.1061,-0.1077,-0.1074,-0.1074,-0.1073,-0.1068,-0.1108,-0.1067,-0.1068,-0.1068,-0.1068,-0.1068,0,-0.065,-0.0673,-0.0691,-0.0724,-0.074,-0.0766,-0.0796,-0.0807,-0.0824,-0.0853,-0.0874,-0.09,-0.0924,-0.0963,-0.0991,-0.0997,-0.1012,-0.1003,-0.1003,-0.1008,-0.1053,-0.1051,-0.099,-0.099,-0.099,-0.099,-0.099,-0.099,-0.0625,-0.0635,-0.0657,-0.0678,-0.0702,-0.0721,-0.0735,-0.0756,-0.0779,-0.0805,-0.0825,-0.085,-0.0883,-0.0912,-0.0936,-0.0947,-0.0955,-0.0941,-0.0956,-0.0998,-0.1005,-0.1012,-0.1011,-0.0942,-0.0942,-0.0911,-0.091,-0.091]}]]